When you browse on this site, cookies collect data to enhance your experience and personalize the content and advertising you see.
Visit our Privacy Policy to learn more. By continuing to use the site, you agree to this use of cookies and data.
  • In Spain
  • List of Countries
  • For 7 days
  • Water Temperature
  • Weather Map
  • Weather Widgets
  • user-avatar
    Login

    Hourly Weather Campobasso

    Today, 21 November, Thursday

    Time Temperature Precipitation Wind Pressure Humidity
    00:00 +6°C° 0 mm 2 mps 698 mmHg 92%
    01:00 +6°C° 0 mm 2 mps 697 mmHg 91%
    02:00 +6°C° 0 mm 2 mps 697 mmHg 91%
    03:00 +5°C° 0 mm 2 mps 697 mmHg 90%
    04:00 +5°C° 0 mm 2 mps 697 mmHg 89%
    05:00 +5°C° 0 mm 2 mps 697 mmHg 89%
    06:00 +5°C° 0 mm 2 mps 697 mmHg 88%
    07:00 +4°C° 0 mm 2 mps 697 mmHg 88%
    08:00 +6°C° 0 mm 2 mps 697 mmHg 82%
    09:00 +8°C° 0 mm 2 mps 697 mmHg 76%
    10:00 +9°C° 0 mm 3 mps 698 mmHg 70%
    11:00 +10°C° 0 mm 3 mps 698 mmHg 68%
    12:00 +11°C° 0 mm 3 mps 698 mmHg 65%
    13:00 +11°C° 0 mm 3 mps 698 mmHg 63%
    14:00 +11°C° 0.1 mm 3 mps 698 mmHg 67%
    15:00 +10°C° 0.1 mm 2 mps 698 mmHg 71%
    16:00 +9°C° 0.1 mm 2 mps 697 mmHg 75%
    17:00 +9°C° 0 mm 1 mps 697 mmHg 79%
    18:00 +9°C° 0 mm 1 mps 697 mmHg 83%
    19:00 +8°C° 0 mm 1 mps 697 mmHg 86%
    20:00 +8°C° 0 mm 1 mps 697 mmHg 87%
    21:00 +8°C° 0 mm 1 mps 697 mmHg 88%
    22:00 +7°C° 0 mm 1 mps 698 mmHg 88%
    23:00 +7°C° 0 mm 1 mps 697 mmHg 88%

    Tomorrow, 22 November, Friday

    Time Temperature Precipitation Wind Pressure Humidity
    00:00 +7°C° 0 mm 1 mps 697 mmHg 89%
    01:00 +7°C° 0 mm 1 mps 697 mmHg 89%
    02:00 +6°C° 0 mm 2 mps 697 mmHg 89%
    03:00 +5°C° 0 mm 2 mps 697 mmHg 89%
    04:00 +5°C° 0 mm 2 mps 697 mmHg 90%
    05:00 +5°C° 0 mm 2 mps 697 mmHg 90%
    06:00 +5°C° 0 mm 2 mps 697 mmHg 90%
    07:00 +6°C° 0 mm 1 mps 697 mmHg 90%
    08:00 +7°C° 0 mm 2 mps 698 mmHg 85%
    09:00 +9°C° 0 mm 2 mps 698 mmHg 79%
    10:00 +10°C° 0 mm 2 mps 699 mmHg 74%
    11:00 +12°C° 0 mm 2 mps 699 mmHg 71%
    12:00 +13°C° 0 mm 2 mps 698 mmHg 67%
    13:00 +12°C° 0 mm 3 mps 698 mmHg 64%
    14:00 +12°C° 0.1 mm 3 mps 698 mmHg 67%
    15:00 +12°C° 0.1 mm 2 mps 698 mmHg 71%
    16:00 +12°C° 0.1 mm 2 mps 698 mmHg 75%
    17:00 +10°C° 0 mm 2 mps 698 mmHg 78%
    18:00 +9°C° 0 mm 2 mps 698 mmHg 80%
    19:00 +8°C° 0 mm 2 mps 698 mmHg 83%
    20:00 +8°C° 0 mm 2 mps 698 mmHg 84%
    21:00 +8°C° 0 mm 2 mps 698 mmHg 85%
    22:00 +8°C° 0 mm 2 mps 698 mmHg 86%
    23:00 +8°C° 0 mm 2 mps 698 mmHg 87%

    Day after tomorrow, 23 November, Saturday

    Time Temperature Precipitation Wind Pressure Humidity
    00:00 +8°C° 0 mm 2 mps 698 mmHg 88%
    01:00 +8°C° 0 mm 2 mps 698 mmHg 89%
    02:00 +7°C° 0 mm 2 mps 697 mmHg 90%
    03:00 +7°C° 0 mm 2 mps 697 mmHg 91%
    04:00 +8°C° 0 mm 1 mps 697 mmHg 92%
    05:00 +8°C° 0 mm 1 mps 697 mmHg 92%
    06:00 +7°C° 0 mm 1 mps 697 mmHg 92%
    07:00 +7°C° 0 mm 1 mps 696 mmHg 92%
    08:00 +8°C° 0 mm 2 mps 697 mmHg 82%
    09:00 +10°C° 0 mm 2 mps 697 mmHg 73%
    10:00 +13°C° 0 mm 2 mps 697 mmHg 64%
    11:00 +14°C° 0 mm 2 mps 697 mmHg 58%
    12:00 +13°C° 0 mm 3 mps 697 mmHg 52%
    13:00 +14°C° 0 mm 3 mps 697 mmHg 47%
    14:00 +13°C° 0 mm 3 mps 696 mmHg 52%
    15:00 +13°C° 0 mm 2 mps 696 mmHg 56%
    16:00 +13°C° 0 mm 1 mps 696 mmHg 61%
    17:00 +12°C° 0 mm 1 mps 695 mmHg 63%
    18:00 +11°C° 0 mm 1 mps 695 mmHg 65%
    19:00 +10°C° 0 mm 1 mps 695 mmHg 67%
    20:00 +10°C° 0 mm 1 mps 695 mmHg 66%
    21:00 +10°C° 0 mm 1 mps 695 mmHg 65%
    22:00 +10°C° 0 mm 1 mps 695 mmHg 64%
    23:00 +10°C° 0 mm 1 mps 695 mmHg 64%

    24 November, Sunday

    Time Temperature Precipitation Wind Pressure Humidity
    00:00 +10°C° 0 mm 1 mps 695 mmHg 64%
    01:00 +10°C° 0 mm 1 mps 694 mmHg 64%
    02:00 +9°C° 0 mm 1 mps 694 mmHg 65%
    03:00 +9°C° 0 mm 1 mps 694 mmHg 67%
    04:00 +9°C° 0 mm 1 mps 693 mmHg 69%
    05:00 +9°C° 0 mm 1 mps 693 mmHg 72%
    06:00 +9°C° 0 mm 1 mps 693 mmHg 74%
    07:00 +8°C° 0 mm 1 mps 693 mmHg 77%
    08:00 +10°C° 0 mm 1 mps 693 mmHg 76%
    09:00 +10°C° 0 mm 2 mps 694 mmHg 75%
    10:00 +12°C° 0 mm 2 mps 694 mmHg 74%
    11:00 +12°C° 0 mm 3 mps 694 mmHg 72%
    12:00 +13°C° 0 mm 4 mps 694 mmHg 71%
    13:00 +13°C° 0 mm 5 mps 694 mmHg 70%
    14:00 +13°C° 0.3 mm 5 mps 693 mmHg 73%
    15:00 +12°C° 0.3 mm 5 mps 693 mmHg 77%
    16:00 +11°C° 0.3 mm 6 mps 693 mmHg 81%
    17:00 +10°C° 0.2 mm 6 mps 693 mmHg 84%
    18:00 +10°C° 0.2 mm 5 mps 693 mmHg 87%
    19:00 +9°C° 0.2 mm 5 mps 693 mmHg 90%
    20:00 +9°C° 0.1 mm 5 mps 693 mmHg 90%
    21:00 +9°C° 0.1 mm 5 mps 693 mmHg 90%
    22:00 +8°C° 0.1 mm 4 mps 693 mmHg 91%
    23:00 +8°C° 0 mm 4 mps 693 mmHg 90%

    25 November, Monday

    Time Temperature Precipitation Wind Pressure Humidity
    00:00 +8°C° 0 mm 4 mps 693 mmHg 90%
    01:00 +8°C° 0 mm 3 mps 693 mmHg 90%
    02:00 +7°C° 0 mm 4 mps 693 mmHg 90%
    03:00 +7°C° 0 mm 4 mps 693 mmHg 91%
    04:00 +7°C° 0 mm 4 mps 693 mmHg 92%
    05:00 +7°C° 0 mm 4 mps 694 mmHg 92%
    06:00 +7°C° 0 mm 4 mps 694 mmHg 93%
    07:00 +8°C° 0 mm 3 mps 694 mmHg 94%
    08:00 +8°C° 0 mm 4 mps 695 mmHg 86%
    09:00 +11°C° 0 mm 4 mps 695 mmHg 79%
    10:00 +12°C° 0 mm 4 mps 696 mmHg 71%
    11:00 +13°C° 0 mm 4 mps 696 mmHg 68%
    12:00 +13°C° 0 mm 4 mps 696 mmHg 64%
    13:00 +14°C° 0 mm 4 mps 697 mmHg 61%
    14:00 +13°C° 0 mm 3 mps 696 mmHg 67%
    15:00 +13°C° 0 mm 2 mps 696 mmHg 73%
    16:00 +12°C° 0 mm 2 mps 696 mmHg 79%
    17:00 +10°C° 0 mm 2 mps 696 mmHg 83%
    18:00 +10°C° 0 mm 1 mps 696 mmHg 87%
    19:00 +9°C° 0 mm 1 mps 696 mmHg 91%
    20:00 +9°C° 0 mm 1 mps 696 mmHg 90%
    21:00 +9°C° 0 mm 1 mps 696 mmHg 90%
    22:00 +8°C° 0 mm 1 mps 696 mmHg 90%
    23:00 +8°C° 0 mm 1 mps 696 mmHg 88%

    26 November, Tuesday

    Time Temperature Precipitation Wind Pressure Humidity
    00:00 +8°C° 0 mm 1 mps 696 mmHg 86%
    01:00 +8°C° 0 mm 1 mps 696 mmHg 85%
    02:00 +7°C° 0 mm 1 mps 696 mmHg 83%
    03:00 +7°C° 0 mm 1 mps 696 mmHg 82%
    04:00 +7°C° 0 mm 1 mps 696 mmHg 80%
    05:00 +7°C° 0 mm 1 mps 696 mmHg 79%
    06:00 +7°C° 0 mm 1 mps 696 mmHg 78%
    07:00 +7°C° 0 mm 1 mps 696 mmHg 77%
    08:00 +9°C° 0 mm 1 mps 697 mmHg 71%
    09:00 +10°C° 0 mm 0 mps 697 mmHg 65%
    10:00 +11°C° 0 mm 0 mps 698 mmHg 59%
    11:00 +13°C° 0 mm 1 mps 698 mmHg 56%
    12:00 +14°C° 0 mm 1 mps 698 mmHg 54%
    13:00 +15°C° 0 mm 1 mps 698 mmHg 51%
    14:00 +14°C° 0 mm 1 mps 698 mmHg 58%
    15:00 +13°C° 0 mm 1 mps 698 mmHg 64%
    16:00 +12°C° 0 mm 1 mps 698 mmHg 70%
    17:00 +11°C° 0 mm 1 mps 698 mmHg 76%
    18:00 +9°C° 0 mm 0 mps 698 mmHg 81%
    19:00 +8°C° 0 mm 0 mps 698 mmHg 87%
    20:00 +7°C° 0 mm 0 mps 698 mmHg 87%
    21:00 +8°C° 0 mm 1 mps 698 mmHg 87%
    22:00 +8°C° 0 mm 1 mps 698 mmHg 88%
    23:00 +8°C° 0 mm 1 mps 698 mmHg 89%
    Show more